Time,TemperatureF,DewpointF,PressureIn,WindDirection,WindDirectionDegrees,WindSpeedMPH,WindSpeedGustMPH,Humidity,HourlyPrecipIn,Conditions,Clouds,dailyrainin,SoftwareType,DateUTC
2013-08-20 00:00:00,66.1,62.1,30.01,East,82,1.0,1.0,87,0.00,,---,0.00,VWS V14.01,2013-08-20 04:00:00,
2013-08-20 00:01:00,66.0,62.0,30.01,East,83,3.0,4.0,87,0.00,,---,0.00,VWS V14.01,2013-08-20 04:01:00,
2013-08-20 00:06:00,66.2,61.9,30.01,East,82,0.0,4.0,86,0.00,,---,0.00,VWS V14.01,2013-08-20 04:06:00,
2013-08-20 00:11:00,65.9,61.6,30.01,East,82,1.0,4.0,86,0.00,,---,0.00,VWS V14.01,2013-08-20 04:11:00,
2013-08-20 00:16:00,65.6,61.6,30.01,East,83,2.0,4.0,87,0.00,,---,0.00,VWS V14.01,2013-08-20 04:16:00,
2013-08-20 00:21:00,65.2,61.2,30.01,East,88,0.0,4.0,87,0.00,,---,0.00,VWS V14.01,2013-08-20 04:21:00,
2013-08-20 00:27:00,65.1,61.1,30.01,East,87,4.0,4.0,87,0.00,,---,0.00,VWS V14.01,2013-08-20 04:27:00,
2013-08-20 00:30:00,65.4,61.4,30.02,ESE,120,1.0,4.0,87,0.00,,---,0.00,VWS V14.01,2013-08-20 04:30:00,
2013-08-20 00:32:00,65.4,61.4,30.01,East,87,1.0,3.0,87,0.00,,---,0.00,VWS V14.01,2013-08-20 04:32:00,
2013-08-20 00:37:00,65.6,61.6,30.01,East,88,2.0,4.0,87,0.00,,---,0.00,VWS V14.01,2013-08-20 04:37:00,
2013-08-20 00:42:00,65.7,61.7,30.01,East,86,1.0,4.0,87,0.00,,---,0.00,VWS V14.01,2013-08-20 04:42:00,
2013-08-20 00:47:00,65.7,61.7,30.01,East,87,1.0,4.0,87,0.00,,---,0.00,VWS V14.01,2013-08-20 04:47:00,
2013-08-20 00:52:00,65.3,61.7,30.01,East,87,0.0,4.0,88,0.00,,---,0.00,VWS V14.01,2013-08-20 04:52:00,
2013-08-20 00:57:00,64.9,61.6,30.01,East,82,0.0,4.0,89,0.00,,---,0.00,VWS V14.01,2013-08-20 04:57:00,
2013-08-20 01:00:00,66.1,62.1,30.01,East,83,1.0,7.0,87,0.00,,---,0.00,VWS V14.01,2013-08-20 05:00:00,
2013-08-20 01:02:00,64.8,61.5,30.01,East,79,1.0,3.0,89,0.00,,---,0.00,VWS V14.01,2013-08-20 05:02:00,
2013-08-20 01:07:00,64.5,61.5,30.01,East,80,1.0,3.0,90,0.00,,---,0.00,VWS V14.01,2013-08-20 05:07:00,
2013-08-20 01:12:00,64.5,61.5,30.01,East,80,0.0,4.0,90,0.00,,---,0.00,VWS V14.01,2013-08-20 05:12:00,
2013-08-20 01:17:00,64.5,61.5,30.01,East,80,0.0,4.0,90,0.00,,---,0.00,VWS V14.01,2013-08-20 05:17:00,
2013-08-20 01:22:00,64.6,61.9,30.01,East,79,1.0,4.0,91,0.00,,---,0.00,VWS V14.01,2013-08-20 05:22:00,
2013-08-20 01:27:00,64.5,61.5,30.01,East,81,0.0,4.0,90,0.00,,---,0.00,VWS V14.01,2013-08-20 05:27:00,
2013-08-20 01:30:00,65.3,61.7,30.01,East,87,2.0,4.0,88,0.00,,---,0.00,VWS V14.01,2013-08-20 05:30:00,
2013-08-20 01:32:00,64.3,61.3,30.01,East,84,2.0,4.0,90,0.00,,---,0.00,VWS V14.01,2013-08-20 05:32:00,
2013-08-20 01:37:00,64.5,61.5,30.01,East,82,3.0,4.0,90,0.00,,---,0.00,VWS V14.01,2013-08-20 05:37:00,
2013-08-20 01:42:00,64.5,61.8,30.01,East,82,1.0,4.0,91,0.00,,---,0.00,VWS V14.01,2013-08-20 05:42:00,
2013-08-20 01:47:00,64.5,61.8,30.01,East,83,1.0,4.0,91,0.00,,---,0.00,VWS V14.01,2013-08-20 05:47:00,
2013-08-20 01:52:00,64.5,61.8,30.01,East,82,2.0,5.0,91,0.00,,---,0.00,VWS V14.01,2013-08-20 05:52:00,
2013-08-20 01:57:00,64.3,61.6,30.01,East,83,2.0,5.0,91,0.00,,---,0.00,VWS V14.01,2013-08-20 05:57:00,
2013-08-20 02:00:00,64.8,61.5,30.01,East,79,0.0,4.0,89,0.00,,---,0.00,VWS V14.01,2013-08-20 06:00:00,
2013-08-20 02:02:00,64.3,61.6,30.01,East,84,3.0,5.0,91,0.00,,---,0.00,VWS V14.01,2013-08-20 06:02:00,
2013-08-20 02:07:00,64.4,61.4,30.01,East,82,1.0,5.0,90,0.00,,---,0.00,VWS V14.01,2013-08-20 06:07:00,
2013-08-20 02:12:00,64.5,61.8,30.01,East,83,2.0,5.0,91,0.00,,---,0.00,VWS V14.01,2013-08-20 06:12:00,
2013-08-20 02:17:00,64.6,61.6,30.01,East,83,2.0,5.0,90,0.00,,---,0.00,VWS V14.01,2013-08-20 06:17:00,
2013-08-20 02:22:00,64.5,61.8,30.01,East,83,0.0,5.0,91,0.00,,---,0.00,VWS V14.01,2013-08-20 06:22:00,
2013-08-20 02:27:00,64.0,61.6,30.01,East,83,0.0,5.0,92,0.00,,---,0.00,VWS V14.01,2013-08-20 06:27:00,
2013-08-20 02:30:00,64.5,61.5,30.01,East,84,1.0,4.0,90,0.00,,---,0.00,VWS V14.01,2013-08-20 06:30:00,
2013-08-20 02:32:00,63.8,61.4,30.01,East,83,3.0,3.0,92,0.00,,---,0.00,VWS V14.01,2013-08-20 06:32:00,
2013-08-20 02:37:00,63.8,61.4,30.01,ESE,119,0.0,3.0,92,0.00,,---,0.00,VWS V14.01,2013-08-20 06:37:00,
2013-08-20 02:42:00,63.6,61.2,30.01,ESE,123,3.0,3.0,92,0.00,,---,0.00,VWS V14.01,2013-08-20 06:42:00,
2013-08-20 02:47:00,63.6,61.2,30.01,SE,137,1.0,4.0,92,0.00,,---,0.00,VWS V14.01,2013-08-20 06:47:00,
2013-08-20 02:52:00,63.6,61.5,30.01,SE,135,0.0,4.0,93,0.00,,---,0.00,VWS V14.01,2013-08-20 06:52:00,
2013-08-20 02:57:00,63.6,61.2,30.01,SE,141,2.0,4.0,92,0.00,,---,0.00,VWS V14.01,2013-08-20 06:57:00,
2013-08-20 03:00:00,64.3,61.9,30.01,East,83,1.0,5.0,92,0.00,,---,0.00,VWS V14.01,2013-08-20 07:00:00,
2013-08-20 03:02:00,63.6,61.5,30.01,SE,144,1.0,3.0,93,0.00,,---,0.00,VWS V14.01,2013-08-20 07:02:00,
2013-08-20 03:07:00,63.6,61.5,30.01,SE,145,1.0,3.0,93,0.00,,---,0.00,VWS V14.01,2013-08-20 07:07:00,
2013-08-20 03:12:00,63.8,61.4,30.01,SE,144,0.0,3.0,92,0.00,,---,0.00,VWS V14.01,2013-08-20 07:12:00,
2013-08-20 03:17:00,63.6,61.2,30.01,SE,146,2.0,5.0,92,0.00,,---,0.00,VWS V14.01,2013-08-20 07:17:00,
2013-08-20 03:22:00,64.0,61.6,30.01,SSE,147,2.0,5.0,92,0.00,,---,0.00,VWS V14.01,2013-08-20 07:22:00,
2013-08-20 03:27:00,64.1,61.7,30.01,SSE,147,4.0,5.0,92,0.00,,---,0.00,VWS V14.01,2013-08-20 07:27:00,
2013-08-20 03:30:00,64.0,61.6,30.01,East,83,0.0,5.0,92,0.00,,---,0.00,VWS V14.01,2013-08-20 07:30:00,
2013-08-20 03:33:00,64.5,62.1,30.01,SSE,147,5.0,6.0,92,0.00,,---,0.00,VWS V14.01,2013-08-20 07:33:00,
2013-08-20 03:38:00,64.8,61.8,30.01,SSE,155,2.0,7.0,90,0.00,,---,0.00,VWS V14.01,2013-08-20 07:38:00,
2013-08-20 03:43:00,64.9,61.9,30.01,SSE,158,0.0,7.0,90,0.00,,---,0.00,VWS V14.01,2013-08-20 07:43:00,
2013-08-20 03:48:00,64.6,61.6,30.01,SSE,158,4.0,7.0,90,0.00,,---,0.00,VWS V14.01,2013-08-20 07:48:00,
2013-08-20 03:53:00,64.6,61.9,30.01,SSE,158,2.0,7.0,91,0.00,,---,0.00,VWS V14.01,2013-08-20 07:53:00,
2013-08-20 03:58:00,64.6,61.9,30.01,SSE,158,2.0,7.0,91,0.00,,---,0.00,VWS V14.01,2013-08-20 07:58:00,
2013-08-20 04:00:00,63.6,61.5,30.01,SE,136,1.0,4.0,93,0.00,,---,0.00,VWS V14.01,2013-08-20 08:00:00,
2013-08-20 04:03:00,64.5,61.8,30.01,SSE,158,2.0,4.0,91,0.00,,---,0.00,VWS V14.01,2013-08-20 08:03:00,
2013-08-20 04:08:00,64.5,61.8,30.01,SSE,158,3.0,5.0,91,0.00,,---,0.00,VWS V14.01,2013-08-20 08:08:00,
2013-08-20 04:13:00,64.5,62.1,30.01,SSE,158,1.0,5.0,92,0.00,,---,0.00,VWS V14.01,2013-08-20 08:13:00,
2013-08-20 04:18:00,64.6,61.9,30.01,SSE,158,4.0,5.0,91,0.00,,---,0.00,VWS V14.01,2013-08-20 08:18:00,
2013-08-20 04:23:00,64.8,62.1,30.01,SSE,158,3.0,5.0,91,0.00,,---,0.00,VWS V14.01,2013-08-20 08:23:00,
2013-08-20 04:28:00,64.9,62.2,30.01,SSE,158,1.0,5.0,91,0.00,,---,0.00,VWS V14.01,2013-08-20 08:28:00,
2013-08-20 04:30:00,64.3,61.9,30.01,SSE,147,4.0,5.0,92,0.00,,---,0.00,VWS V14.01,2013-08-20 08:30:00,
2013-08-20 04:33:00,65.1,62.1,30.01,SSE,159,4.0,5.0,90,0.00,,---,0.00,VWS V14.01,2013-08-20 08:33:00,
2013-08-20 04:38:00,65.2,62.2,30.01,SSE,159,3.0,7.0,90,0.00,,---,0.00,VWS V14.01,2013-08-20 08:38:00,
2013-08-20 04:43:00,65.4,62.4,30.01,SSE,162,3.0,7.0,90,0.00,,---,0.00,VWS V14.01,2013-08-20 08:43:00,
2013-08-20 04:48:00,65.6,62.6,30.02,SSE,164,2.0,7.0,90,0.00,,---,0.00,VWS V14.01,2013-08-20 08:48:00,
2013-08-20 04:53:00,65.7,62.4,30.01,SSE,162,3.0,7.0,89,0.00,,---,0.00,VWS V14.01,2013-08-20 08:53:00,
2013-08-20 04:58:00,65.9,62.6,30.01,SSE,163,4.0,7.0,89,0.00,,---,0.00,VWS V14.01,2013-08-20 08:58:00,
2013-08-20 05:00:00,64.6,61.6,30.01,SSE,159,3.0,7.0,90,0.00,,---,0.00,VWS V14.01,2013-08-20 09:00:00,
2013-08-20 05:03:00,65.9,62.2,30.02,SSE,162,3.0,6.0,88,0.00,,---,0.00,VWS V14.01,2013-08-20 09:03:00,
2013-08-20 05:08:00,66.1,62.8,30.01,SSE,162,4.0,6.0,89,0.00,,---,0.00,VWS V14.01,2013-08-20 09:08:00,
2013-08-20 05:13:00,66.1,62.8,30.02,SSE,161,4.0,6.0,89,0.00,,---,0.00,VWS V14.01,2013-08-20 09:13:00,
2013-08-20 05:18:00,66.0,62.7,30.02,SSE,160,3.0,6.0,89,0.00,,---,0.00,VWS V14.01,2013-08-20 09:18:00,
2013-08-20 05:23:00,66.1,62.8,30.02,SSE,160,5.0,7.0,89,0.00,,---,0.00,VWS V14.01,2013-08-20 09:23:00,
2013-08-20 05:28:00,66.2,62.5,30.02,SSE,159,4.0,7.0,88,0.00,,---,0.00,VWS V14.01,2013-08-20 09:28:00,
2013-08-20 05:30:00,64.9,62.2,30.02,SSE,158,3.0,5.0,91,0.00,,---,0.00,VWS V14.01,2013-08-20 09:30:00,
2013-08-20 05:33:00,66.4,63.1,30.02,SSE,155,2.0,6.0,89,0.00,,---,0.00,VWS V14.01,2013-08-20 09:33:00,
2013-08-20 05:38:00,66.4,63.1,30.02,SSE,154,1.0,6.0,89,0.00,,---,0.00,VWS V14.01,2013-08-20 09:38:00,
2013-08-20 05:43:00,66.4,63.1,30.02,SSE,149,1.0,6.0,89,0.00,,---,0.00,VWS V14.01,2013-08-20 09:43:00,
2013-08-20 05:48:00,66.4,63.4,30.02,SSE,151,0.0,6.0,90,0.00,,---,0.00,VWS V14.01,2013-08-20 09:48:00,
2013-08-20 05:53:00,66.5,63.5,30.02,SSE,151,4.0,6.0,90,0.00,,---,0.00,VWS V14.01,2013-08-20 09:53:00,
2013-08-20 05:59:00,66.5,63.2,30.02,SSE,150,3.0,6.0,89,0.00,,---,0.00,VWS V14.01,2013-08-20 09:59:00,
2013-08-20 06:00:00,65.9,62.6,30.01,SSE,162,5.0,7.0,89,0.00,,---,0.00,VWS V14.01,2013-08-20 10:00:00,
2013-08-20 06:04:00,66.7,63.4,30.02,SE,144,2.0,5.0,89,0.00,,---,0.00,VWS V14.01,2013-08-20 10:04:00,
2013-08-20 06:09:00,66.8,63.5,30.02,SE,145,1.0,5.0,89,0.00,,---,0.00,VWS V14.01,2013-08-20 10:09:00,
2013-08-20 06:14:00,66.8,63.8,30.02,SE,145,2.0,5.0,90,0.00,,---,0.00,VWS V14.01,2013-08-20 10:14:00,
2013-08-20 06:19:00,66.8,63.5,30.02,SSE,147,2.0,6.0,89,0.00,,---,0.00,VWS V14.01,2013-08-20 10:19:00,
2013-08-20 06:24:00,67.0,63.7,30.02,SE,145,2.0,6.0,89,0.00,,---,0.00,VWS V14.01,2013-08-20 10:24:00,
2013-08-20 06:29:00,67.2,64.2,30.03,SE,137,3.0,7.0,90,0.00,,---,0.00,VWS V14.01,2013-08-20 10:29:00,
2013-08-20 06:30:00,66.2,62.9,30.02,SSE,159,5.0,7.0,89,0.00,,---,0.00,VWS V14.01,2013-08-20 10:30:00,
2013-08-20 06:34:00,67.2,63.8,30.03,SE,127,3.0,5.0,89,0.00,,---,0.00,VWS V14.01,2013-08-20 10:34:00,
2013-08-20 06:39:00,67.2,63.8,30.03,SE,133,2.0,5.0,89,0.00,,---,0.00,VWS V14.01,2013-08-20 10:39:00,
2013-08-20 06:44:00,67.2,63.8,30.03,SE,134,1.0,6.0,89,0.00,,---,0.00,VWS V14.01,2013-08-20 10:44:00,
2013-08-20 06:49:00,67.2,64.2,30.03,SE,136,1.0,6.0,90,0.00,,---,0.00,VWS V14.01,2013-08-20 10:49:00,
2013-08-20 06:54:00,67.0,64.0,30.03,SE,134,5.0,6.0,90,0.00,,---,0.00,VWS V14.01,2013-08-20 10:54:00,
2013-08-20 06:59:00,67.2,64.2,30.04,SE,135,4.0,6.0,90,0.00,,---,0.00,VWS V14.01,2013-08-20 10:59:00,
2013-08-20 07:00:00,66.7,63.7,30.02,SE,139,4.0,6.0,90,0.00,,---,0.00,VWS V14.01,2013-08-20 11:00:00,
2013-08-20 07:04:00,67.2,64.2,30.04,SE,132,3.0,5.0,90,0.00,,---,0.00,VWS V14.01,2013-08-20 11:04:00,
2013-08-20 07:09:00,67.4,64.4,30.04,SE,136,3.0,5.0,90,0.00,,---,0.00,VWS V14.01,2013-08-20 11:09:00,
2013-08-20 07:14:00,67.4,64.4,30.04,SE,131,2.0,5.0,90,0.00,,---,0.00,VWS V14.01,2013-08-20 11:14:00,
2013-08-20 07:19:00,67.4,64.4,30.05,SE,135,3.0,5.0,90,0.00,,---,0.00,VWS V14.01,2013-08-20 11:19:00,
2013-08-20 07:24:00,67.5,64.5,30.05,SE,130,3.0,5.0,90,0.00,,---,0.00,VWS V14.01,2013-08-20 11:24:00,
2013-08-20 07:29:00,67.5,64.5,30.05,ESE,122,2.0,5.0,90,0.00,,---,0.00,VWS V14.01,2013-08-20 11:29:00,
2013-08-20 07:30:00,67.2,63.8,30.02,SE,135,2.0,7.0,89,0.00,,---,0.00,VWS V14.01,2013-08-20 11:30:00,
2013-08-20 07:34:00,67.5,64.5,30.05,SE,142,3.0,5.0,90,0.00,,---,0.00,VWS V14.01,2013-08-20 11:34:00,
2013-08-20 07:39:00,67.5,64.5,30.05,SE,141,2.0,5.0,90,0.00,,---,0.00,VWS V14.01,2013-08-20 11:39:00,
2013-08-20 07:44:00,67.5,64.5,30.05,SE,137,2.0,5.0,90,0.00,,---,0.00,VWS V14.01,2013-08-20 11:44:00,
2013-08-20 07:49:00,67.5,64.5,30.06,SE,144,4.0,6.0,90,0.00,,---,0.00,VWS V14.01,2013-08-20 11:49:00,
2013-08-20 07:54:00,67.5,64.5,30.06,SE,141,0.0,6.0,90,0.00,,---,0.00,VWS V14.01,2013-08-20 11:54:00,
2013-08-20 07:59:00,67.7,64.7,30.06,SE,142,3.0,6.0,90,0.00,,---,0.00,VWS V14.01,2013-08-20 11:59:00,
2013-08-20 08:00:00,67.2,64.2,30.04,SE,134,3.0,6.0,90,0.00,,---,0.00,VWS V14.01,2013-08-20 12:00:00,
2013-08-20 08:04:00,67.7,64.7,30.06,SE,136,2.0,9.0,90,0.00,,---,0.00,VWS V14.01,2013-08-20 12:04:00,
2013-08-20 08:09:00,67.7,64.7,30.06,SE,132,4.0,9.0,90,0.00,,---,0.00,VWS V14.01,2013-08-20 12:09:00,
2013-08-20 08:14:00,67.7,64.7,30.06,SE,133,6.0,9.0,90,0.00,,---,0.00,VWS V14.01,2013-08-20 12:14:00,
2013-08-20 08:19:00,67.5,64.8,30.06,SE,137,5.0,9.0,91,0.00,,---,0.00,VWS V14.01,2013-08-20 12:19:00,
2013-08-20 08:24:00,67.5,64.8,30.06,SE,146,5.0,9.0,91,0.00,,---,0.00,VWS V14.01,2013-08-20 12:24:00,
2013-08-20 08:29:00,67.9,65.2,30.06,SE,136,3.0,9.0,91,0.00,,---,0.00,VWS V14.01,2013-08-20 12:29:00,
2013-08-20 08:30:00,67.5,64.5,30.05,SE,138,4.0,5.0,90,0.00,,---,0.00,VWS V14.01,2013-08-20 12:30:00,
2013-08-20 08:34:00,68.2,65.5,30.06,ESE,123,3.0,6.0,91,0.00,,---,0.00,VWS V14.01,2013-08-20 12:34:00,
2013-08-20 08:40:00,68.5,65.5,30.06,ESE,110,5.0,6.0,90,0.00,,---,0.00,VWS V14.01,2013-08-20 12:40:00,
2013-08-20 08:45:00,68.7,65.7,30.07,East,98,3.0,7.0,90,0.00,,---,0.00,VWS V14.01,2013-08-20 12:45:00,
2013-08-20 08:50:00,69.0,65.9,30.07,East,97,3.0,7.0,90,0.00,,---,0.00,VWS V14.01,2013-08-20 12:50:00,
2013-08-20 08:55:00,69.2,65.8,30.07,East,100,5.0,7.0,89,0.00,,---,0.00,VWS V14.01,2013-08-20 12:55:00,
2013-08-20 09:00:00,69.5,66.4,30.07,East,97,1.0,7.0,90,0.00,,---,0.00,VWS V14.01,2013-08-20 13:00:00,
2013-08-20 09:05:00,69.8,66.4,30.07,East,97,2.0,7.0,89,0.00,,---,0.00,VWS V14.01,2013-08-20 13:05:00,
2013-08-20 09:10:00,70.2,66.8,30.07,East,94,1.0,8.0,89,0.00,,---,0.00,VWS V14.01,2013-08-20 13:10:00,
2013-08-20 09:15:00,70.5,67.1,30.07,ESE,111,3.0,9.0,89,0.00,,---,0.00,VWS V14.01,2013-08-20 13:15:00,
2013-08-20 09:20:00,70.7,67.0,30.07,East,80,6.0,9.0,88,0.00,,---,0.00,VWS V14.01,2013-08-20 13:20:00,
2013-08-20 09:25:00,71.0,67.3,30.07,East,89,6.0,9.0,88,0.00,,---,0.00,VWS V14.01,2013-08-20 13:25:00,
2013-08-20 09:30:00,71.4,67.3,30.07,East,95,1.0,1.0,87,0.00,,---,0.00,VWS V14.01,2013-08-20 13:30:00,
2013-08-20 09:35:00,71.9,68.2,30.07,ESE,106,2.0,9.0,88,0.00,,---,0.00,VWS V14.01,2013-08-20 13:35:00,
2013-08-20 09:40:00,72.1,68.0,30.07,ESE,117,2.0,9.0,87,0.00,,---,0.00,VWS V14.01,2013-08-20 13:40:00,
2013-08-20 09:45:00,72.5,68.1,30.07,ESE,110,2.0,9.0,86,0.00,,---,0.00,VWS V14.01,2013-08-20 13:45:00,
2013-08-20 09:50:00,72.7,68.3,30.07,ESE,107,1.0,9.0,86,0.00,,---,0.00,VWS V14.01,2013-08-20 13:50:00,
2013-08-20 09:55:00,72.9,68.5,30.07,ESE,113,3.0,9.0,86,0.00,,---,0.00,VWS V14.01,2013-08-20 13:55:00,
2013-08-20 10:00:00,73.1,68.0,30.07,ESE,106,2.0,3.0,84,0.00,,---,0.00,VWS V14.01,2013-08-20 14:00:00,
2013-08-20 10:05:00,73.2,68.4,30.07,SSE,150,2.0,8.0,85,0.00,,---,0.00,VWS V14.01,2013-08-20 14:05:00,
2013-08-20 10:10:00,73.6,68.1,30.08,SE,140,3.0,8.0,83,0.00,,---,0.00,VWS V14.01,2013-08-20 14:10:00,
2013-08-20 10:15:00,73.9,68.8,30.08,ESE,113,3.0,8.0,84,0.00,,---,0.00,VWS V14.01,2013-08-20 14:15:00,
2013-08-20 10:20:00,74.2,68.7,30.08,SE,134,2.0,8.0,83,0.00,,---,0.00,VWS V14.01,2013-08-20 14:20:00,
2013-08-20 10:25:00,74.4,68.9,30.08,ESE,116,3.0,8.0,83,0.00,,---,0.00,VWS V14.01,2013-08-20 14:25:00,
2013-08-20 10:30:00,74.6,68.4,30.08,ESE,113,3.0,5.0,81,0.00,,---,0.00,VWS V14.01,2013-08-20 14:30:00,
2013-08-20 10:35:00,74.9,68.7,30.08,ESE,121,2.0,9.0,81,0.00,,---,0.00,VWS V14.01,2013-08-20 14:35:00,
2013-08-20 10:40:00,75.0,69.1,30.08,ESE,114,2.0,9.0,82,0.00,,---,0.00,VWS V14.01,2013-08-20 14:40:00,
2013-08-20 10:45:00,75.3,69.4,30.08,ESE,109,9.0,9.0,82,0.00,,---,0.00,VWS V14.01,2013-08-20 14:45:00,
2013-08-20 10:50:00,75.6,69.4,30.08,ESE,114,4.0,10.0,81,0.00,,---,0.00,VWS V14.01,2013-08-20 14:50:00,
2013-08-20 10:55:00,75.8,68.8,30.08,SE,128,3.0,10.0,79,0.00,,---,0.00,VWS V14.01,2013-08-20 14:55:00,
2013-08-20 11:00:00,75.8,69.2,30.08,ENE,75,7.0,10.0,80,0.00,,---,0.00,VWS V14.01,2013-08-20 15:00:00,
2013-08-20 11:05:00,75.8,68.5,30.08,SE,145,2.0,10.0,78,0.00,,---,0.00,VWS V14.01,2013-08-20 15:05:00,
2013-08-20 11:10:00,76.2,69.2,30.08,ESE,114,9.0,10.0,79,0.00,,---,0.00,VWS V14.01,2013-08-20 15:10:00,
2013-08-20 11:15:00,76.2,69.2,30.08,SSE,158,3.0,11.0,79,0.00,,---,0.00,VWS V14.01,2013-08-20 15:15:00,
2013-08-20 11:20:00,76.5,69.1,30.08,East,93,1.0,11.0,78,0.00,,---,0.00,VWS V14.01,2013-08-20 15:20:00,
2013-08-20 11:25:00,76.9,69.2,30.08,ESE,122,6.0,11.0,77,0.00,,---,0.00,VWS V14.01,2013-08-20 15:25:00,
2013-08-20 11:30:00,77.2,69.8,30.08,SE,126,3.0,5.0,78,0.00,,---,0.00,VWS V14.01,2013-08-20 15:30:00,
2013-08-20 11:35:00,77.4,69.6,30.08,ESE,113,1.0,12.0,77,0.00,,---,0.00,VWS V14.01,2013-08-20 15:35:00,
2013-08-20 11:40:00,77.6,69.1,30.08,SE,127,7.0,12.0,75,0.00,,---,0.00,VWS V14.01,2013-08-20 15:40:00,
2013-08-20 11:46:00,77.8,69.2,30.08,SSE,152,2.0,12.0,75,0.00,,---,0.00,VWS V14.01,2013-08-20 15:46:00,
2013-08-20 11:51:00,78.0,69.4,30.08,SE,135,2.0,12.0,75,0.00,,---,0.00,VWS V14.01,2013-08-20 15:51:00,
2013-08-20 11:56:00,78.3,68.9,30.08,SE,130,5.0,12.0,73,0.00,,---,0.00,VWS V14.01,2013-08-20 15:56:00,
2013-08-20 12:00:00,75.8,69.2,30.08,SE,135,5.0,10.0,80,0.00,,---,0.00,VWS V14.01,2013-08-20 16:00:00,
2013-08-20 12:01:00,78.5,70.3,30.08,SE,146,4.0,6.0,76,0.00,,---,0.00,VWS V14.01,2013-08-20 16:01:00,
2013-08-20 12:06:00,78.7,69.7,30.07,SE,137,5.0,8.0,74,0.00,,---,0.00,VWS V14.01,2013-08-20 16:06:00,
2013-08-20 12:11:00,78.7,69.7,30.08,ESE,111,2.0,8.0,74,0.00,,---,0.00,VWS V14.01,2013-08-20 16:11:00,
2013-08-20 12:16:00,78.7,68.9,30.07,SE,146,5.0,12.0,72,0.00,,---,0.00,VWS V14.01,2013-08-20 16:16:00,
2013-08-20 12:21:00,78.9,69.5,30.08,ESE,109,1.0,12.0,73,0.00,,---,0.00,VWS V14.01,2013-08-20 16:21:00,
2013-08-20 12:26:00,79.4,70.4,30.07,East,87,3.0,12.0,74,0.00,,---,0.00,VWS V14.01,2013-08-20 16:26:00,
2013-08-20 12:30:00,77.1,69.7,30.08,ESE,107,4.0,11.0,78,0.00,,---,0.00,VWS V14.01,2013-08-20 16:30:00,
2013-08-20 12:31:00,80.0,69.8,30.08,SE,129,6.0,9.0,71,0.00,,---,0.00,VWS V14.01,2013-08-20 16:31:00,
2013-08-20 12:36:00,79.6,69.4,30.07,ESE,121,4.0,12.0,71,0.00,,---,0.00,VWS V14.01,2013-08-20 16:36:00,
2013-08-20 12:41:00,79.6,69.8,30.08,SE,127,2.0,12.0,72,0.00,,---,0.00,VWS V14.01,2013-08-20 16:41:00,
2013-08-20 12:46:00,79.8,69.6,30.07,East,90,1.0,12.0,71,0.00,,---,0.00,VWS V14.01,2013-08-20 16:46:00,
2013-08-20 12:51:00,80.2,69.1,30.07,SE,125,7.0,12.0,69,0.00,,---,0.00,VWS V14.01,2013-08-20 16:51:00,
2013-08-20 12:56:00,80.0,69.8,30.07,SE,130,5.0,12.0,71,0.00,,---,0.00,VWS V14.01,2013-08-20 16:56:00,
2013-08-20 13:00:00,78.3,70.1,30.08,SSE,147,2.0,12.0,76,0.00,,---,0.00,VWS V14.01,2013-08-20 17:00:00,
2013-08-20 13:01:00,80.2,69.9,30.07,SE,143,1.0,7.0,71,0.00,,---,0.00,VWS V14.01,2013-08-20 17:01:00,
2013-08-20 13:06:00,81.1,70.8,30.07,SE,126,3.0,7.0,71,0.00,,---,0.00,VWS V14.01,2013-08-20 17:06:00,
2013-08-20 13:11:00,81.1,69.6,30.07,ESE,120,8.0,10.0,68,0.00,,---,0.00,VWS V14.01,2013-08-20 17:11:00,
2013-08-20 13:16:00,80.9,69.8,30.07,SE,144,3.0,10.0,69,0.00,,---,0.00,VWS V14.01,2013-08-20 17:16:00,
2013-08-20 13:21:00,81.1,69.6,30.07,SSE,157,8.0,10.0,68,0.00,,---,0.00,VWS V14.01,2013-08-20 17:21:00,
2013-08-20 13:26:00,80.9,68.9,30.07,SSE,159,10.0,13.0,67,0.00,,---,0.00,VWS V14.01,2013-08-20 17:26:00,
2013-08-20 13:30:00,80.0,69.8,30.08,ESE,109,9.0,12.0,71,0.00,,---,0.00,VWS V14.01,2013-08-20 17:30:00,
2013-08-20 13:31:00,80.7,69.2,30.07,ESE,120,4.0,10.0,68,0.00,,---,0.00,VWS V14.01,2013-08-20 17:31:00,
2013-08-20 13:36:00,80.9,69.4,30.07,WSW,256,9.0,11.0,68,0.00,,---,0.00,VWS V14.01,2013-08-20 17:36:00,
2013-08-20 13:41:00,80.9,68.9,30.07,West,279,10.0,12.0,67,0.00,,---,0.00,VWS V14.01,2013-08-20 17:41:00,
2013-08-20 13:46:00,80.9,68.5,30.07,West,275,2.0,12.0,66,0.00,,---,0.00,VWS V14.01,2013-08-20 17:46:00,
2013-08-20 13:51:00,81.1,69.1,30.07,SW,228,5.0,12.0,67,0.00,,---,0.00,VWS V14.01,2013-08-20 17:51:00,
2013-08-20 13:56:00,81.7,69.2,30.07,WSW,258,7.0,12.0,66,0.00,,---,0.00,VWS V14.01,2013-08-20 17:56:00,
2013-08-20 14:00:00,80.0,69.8,30.07,ESE,112,5.0,12.0,71,0.00,,---,0.00,VWS V14.01,2013-08-20 18:00:00,
2013-08-20 14:01:00,81.9,69.0,30.07,WSW,254,8.0,8.0,65,0.00,,---,0.00,VWS V14.01,2013-08-20 18:01:00,
2013-08-20 14:06:00,81.7,69.2,30.06,WNW,289,9.0,11.0,66,0.00,,---,0.00,VWS V14.01,2013-08-20 18:06:00,
2013-08-20 14:11:00,81.7,68.8,30.06,WNW,297,3.0,11.0,65,0.00,,---,0.00,VWS V14.01,2013-08-20 18:11:00,
2013-08-20 14:16:00,82.3,68.9,30.06,SSE,156,11.0,14.0,64,0.00,,---,0.00,VWS V14.01,2013-08-20 18:16:00,
2013-08-20 14:21:00,82.5,69.1,30.06,WSW,244,8.0,14.0,64,0.00,,---,0.00,VWS V14.01,2013-08-20 18:21:00,
2013-08-20 14:26:00,82.5,68.2,30.06,WSW,250,5.0,14.0,62,0.00,,---,0.00,VWS V14.01,2013-08-20 18:26:00,
2013-08-20 14:30:00,80.7,69.2,30.07,ESE,110,7.0,13.0,68,0.00,,---,0.00,VWS V14.01,2013-08-20 18:30:00,
2013-08-20 14:31:00,82.7,68.4,30.06,West,268,6.0,13.0,62,0.00,,---,0.00,VWS V14.01,2013-08-20 18:31:00,
2013-08-20 14:36:00,82.4,67.6,30.06,WNW,283,9.0,16.0,61,0.00,,---,0.00,VWS V14.01,2013-08-20 18:36:00,
2013-08-20 14:41:00,82.4,67.6,30.06,West,273,1.0,16.0,61,0.00,,---,0.00,VWS V14.01,2013-08-20 18:41:00,
2013-08-20 14:46:00,82.6,67.8,30.06,WNW,289,7.0,16.0,61,0.00,,---,0.00,VWS V14.01,2013-08-20 18:46:00,
2013-08-20 14:51:00,82.8,68.5,30.05,West,273,2.0,16.0,62,0.00,,---,0.00,VWS V14.01,2013-08-20 18:51:00,
2013-08-20 14:56:00,83.0,67.7,30.06,SW,220,4.0,16.0,60,0.00,,---,0.00,VWS V14.01,2013-08-20 18:56:00,
2013-08-20 15:00:00,81.8,68.9,30.06,West,260,5.0,12.0,65,0.00,,---,0.00,VWS V14.01,2013-08-20 19:00:00,
2013-08-20 15:01:00,83.2,67.4,30.05,South,188,4.0,8.0,59,0.00,,---,0.00,VWS V14.01,2013-08-20 19:01:00,
2013-08-20 15:06:00,83.8,68.9,30.05,SSW,198,6.0,8.0,61,0.00,,---,0.00,VWS V14.01,2013-08-20 19:06:00,
2013-08-20 15:11:00,84.2,68.3,30.05,SW,232,5.0,15.0,59,0.00,,---,0.00,VWS V14.01,2013-08-20 19:11:00,
2013-08-20 15:16:00,83.8,68.0,30.05,West,265,9.0,15.0,59,0.00,,---,0.00,VWS V14.01,2013-08-20 19:16:00,
2013-08-20 15:21:00,83.4,68.1,30.05,WNW,289,0.0,15.0,60,0.00,,---,0.00,VWS V14.01,2013-08-20 19:21:00,
2013-08-20 15:27:00,83.8,68.0,30.05,West,279,6.0,15.0,59,0.00,,---,0.00,VWS V14.01,2013-08-20 19:27:00,
2013-08-20 15:30:00,82.6,67.8,30.06,WSW,239,5.0,14.0,61,0.00,,---,0.00,VWS V14.01,2013-08-20 19:30:00,
2013-08-20 15:32:00,83.6,68.3,30.05,WSW,242,2.0,13.0,60,0.00,,---,0.00,VWS V14.01,2013-08-20 19:32:00,
2013-08-20 15:37:00,83.6,68.3,30.05,SW,229,1.0,13.0,60,0.00,,---,0.00,VWS V14.01,2013-08-20 19:37:00,
2013-08-20 15:42:00,83.6,68.3,30.05,WSW,240,7.0,16.0,60,0.00,,---,0.00,VWS V14.01,2013-08-20 19:42:00,
2013-08-20 15:47:00,83.6,68.7,30.04,WSW,256,4.0,16.0,61,0.00,,---,0.00,VWS V14.01,2013-08-20 19:47:00,
2013-08-20 15:52:00,84.2,68.3,30.04,South,175,0.0,16.0,59,0.00,,---,0.00,VWS V14.01,2013-08-20 19:52:00,
2013-08-20 15:57:00,84.4,68.5,30.04,SE,145,4.0,16.0,59,0.00,,---,0.00,VWS V14.01,2013-08-20 19:57:00,
2013-08-20 16:00:00,83.2,67.9,30.06,South,174,5.0,16.0,60,0.00,,---,0.00,VWS V14.01,2013-08-20 20:00:00,
2013-08-20 16:02:00,84.4,68.0,30.04,West,268,6.0,9.0,58,0.00,,---,0.00,VWS V14.01,2013-08-20 20:02:00,
2013-08-20 16:07:00,84.4,68.0,30.04,SW,216,7.0,14.0,58,0.00,,---,0.00,VWS V14.01,2013-08-20 20:07:00,
2013-08-20 16:12:00,84.2,67.8,30.04,SSW,198,1.0,14.0,58,0.00,,---,0.00,VWS V14.01,2013-08-20 20:12:00,
2013-08-20 16:17:00,84.2,68.3,30.04,SSW,193,6.0,14.0,59,0.00,,---,0.00,VWS V14.01,2013-08-20 20:17:00,
2013-08-20 16:22:00,84.2,67.8,30.04,WNW,287,11.0,14.0,58,0.00,,---,0.00,VWS V14.01,2013-08-20 20:22:00,
2013-08-20 16:27:00,84.0,68.1,30.04,WSW,247,4.0,14.0,59,0.00,,---,0.00,VWS V14.01,2013-08-20 20:27:00,
2013-08-20 16:30:00,83.6,67.8,30.05,West,273,5.0,15.0,59,0.00,,---,0.00,VWS V14.01,2013-08-20 20:30:00,
2013-08-20 16:32:00,84.0,68.1,30.04,WSW,250,3.0,11.0,59,0.00,,---,0.00,VWS V14.01,2013-08-20 20:32:00,
2013-08-20 16:37:00,83.8,68.0,30.04,WSW,254,5.0,11.0,59,0.00,,---,0.00,VWS V14.01,2013-08-20 20:37:00,
2013-08-20 16:42:00,84.0,68.1,30.04,West,260,0.0,12.0,59,0.00,,---,0.00,VWS V14.01,2013-08-20 20:42:00,
2013-08-20 16:47:00,84.0,67.7,30.04,SW,234,5.0,12.0,58,0.00,,---,0.00,VWS V14.01,2013-08-20 20:47:00,
2013-08-20 16:52:00,83.8,67.5,30.04,SSW,192,5.0,19.0,58,0.00,,---,0.00,VWS V14.01,2013-08-20 20:52:00,
2013-08-20 16:57:00,83.8,67.5,30.04,WSW,247,5.0,19.0,58,0.00,,---,0.00,VWS V14.01,2013-08-20 20:57:00,
2013-08-20 17:00:00,84.4,68.5,30.04,WNW,300,3.0,16.0,59,0.00,,---,0.00,VWS V14.01,2013-08-20 21:00:00,
2013-08-20 17:02:00,83.8,68.0,30.03,West,271,2.0,14.0,59,0.00,,---,0.00,VWS V14.01,2013-08-20 21:02:00,
2013-08-20 17:07:00,84.0,68.6,30.04,WNW,294,5.0,14.0,60,0.00,,---,0.00,VWS V14.01,2013-08-20 21:07:00,
2013-08-20 17:12:00,84.2,68.3,30.04,SSW,193,4.0,14.0,59,0.00,,---,0.00,VWS V14.01,2013-08-20 21:12:00,
2013-08-20 17:17:00,84.2,67.8,30.04,West,271,8.0,14.0,58,0.00,,---,0.00,VWS V14.01,2013-08-20 21:17:00,
2013-08-20 17:22:00,84.0,68.1,30.03,WSW,239,4.0,14.0,59,0.00,,---,0.00,VWS V14.01,2013-08-20 21:22:00,
2013-08-20 17:27:00,84.0,68.6,30.03,South,169,7.0,14.0,60,0.00,,---,0.00,VWS V14.01,2013-08-20 21:27:00,
2013-08-20 17:30:00,84.0,68.1,30.04,WSW,253,2.0,14.0,59,0.00,,---,0.00,VWS V14.01,2013-08-20 21:30:00,
2013-08-20 17:32:00,84.0,67.7,30.03,SW,230,4.0,10.0,58,0.00,,---,0.00,VWS V14.01,2013-08-20 21:32:00,
2013-08-20 17:37:00,83.6,67.8,30.03,West,261,2.0,16.0,59,0.00,,---,0.00,VWS V14.01,2013-08-20 21:37:00,
2013-08-20 17:42:00,83.6,67.8,30.03,WNW,284,2.0,16.0,59,0.00,,---,0.00,VWS V14.01,2013-08-20 21:42:00,
2013-08-20 17:47:00,83.6,68.3,30.03,West,270,7.0,16.0,60,0.00,,---,0.00,VWS V14.01,2013-08-20 21:47:00,
2013-08-20 17:52:00,83.4,67.6,30.04,SW,225,4.0,16.0,59,0.00,,---,0.00,VWS V14.01,2013-08-20 21:52:00,
2013-08-20 17:57:00,83.4,68.1,30.03,West,265,7.0,16.0,60,0.00,,---,0.00,VWS V14.01,2013-08-20 21:57:00,
2013-08-20 18:00:00,83.8,67.5,30.04,West,263,2.0,19.0,58,0.00,,---,0.00,VWS V14.01,2013-08-20 22:00:00,
2013-08-20 18:02:00,83.2,67.9,30.03,South,174,3.0,7.0,60,0.00,,---,0.00,VWS V14.01,2013-08-20 22:02:00,
2013-08-20 18:07:00,83.2,68.4,30.03,West,260,5.0,9.0,61,0.00,,---,0.00,VWS V14.01,2013-08-20 22:07:00,
2013-08-20 18:12:00,83.2,68.4,30.03,West,277,6.0,9.0,61,0.00,,---,0.00,VWS V14.01,2013-08-20 22:12:00,
2013-08-20 18:17:00,83.0,68.2,30.03,SE,140,0.0,12.0,61,0.00,,---,0.00,VWS V14.01,2013-08-20 22:17:00,
2013-08-20 18:23:00,82.8,67.5,30.03,SW,221,4.0,12.0,60,0.00,,---,0.00,VWS V14.01,2013-08-20 22:23:00,
2013-08-20 18:28:00,82.8,68.0,30.03,West,279,2.0,12.0,61,0.00,,---,0.00,VWS V14.01,2013-08-20 22:28:00,
2013-08-20 18:30:00,84.0,68.1,30.03,NNW,336,3.0,14.0,59,0.00,,---,0.00,VWS V14.01,2013-08-20 22:30:00,
2013-08-20 18:33:00,82.6,67.8,30.03,West,275,3.0,9.0,61,0.00,,---,0.00,VWS V14.01,2013-08-20 22:33:00,
2013-08-20 18:38:00,82.2,67.4,30.03,WSW,249,2.0,9.0,61,0.00,,---,0.00,VWS V14.01,2013-08-20 22:38:00,
2013-08-20 18:43:00,82.2,67.9,30.03,WSW,256,4.0,10.0,62,0.00,,---,0.00,VWS V14.01,2013-08-20 22:43:00,
2013-08-20 18:48:00,82.2,67.9,30.03,SW,223,9.0,10.0,62,0.00,,---,0.00,VWS V14.01,2013-08-20 22:48:00,
2013-08-20 18:53:00,82.1,67.8,30.03,SW,229,1.0,10.0,62,0.00,,---,0.00,VWS V14.01,2013-08-20 22:53:00,
2013-08-20 18:58:00,82.1,67.8,30.03,West,267,2.0,10.0,62,0.00,,---,0.00,VWS V14.01,2013-08-20 22:58:00,
2013-08-20 19:00:00,83.2,67.9,30.03,South,185,4.0,16.0,60,0.00,,---,0.00,VWS V14.01,2013-08-20 23:00:00,
2013-08-20 19:03:00,82.0,67.7,30.03,SW,227,5.0,6.0,62,0.00,,---,0.00,VWS V14.01,2013-08-20 23:03:00,
2013-08-20 19:08:00,82.1,67.8,30.02,NNW,339,2.0,6.0,62,0.00,,---,0.00,VWS V14.01,2013-08-20 23:08:00,
2013-08-20 19:13:00,81.9,67.6,30.02,West,268,3.0,9.0,62,0.00,,---,0.00,VWS V14.01,2013-08-20 23:13:00,
2013-08-20 19:18:00,81.5,67.2,30.02,WSW,249,5.0,10.0,62,0.00,,---,0.00,VWS V14.01,2013-08-20 23:18:00,
2013-08-20 19:23:00,81.3,67.1,30.02,SSW,194,4.0,10.0,62,0.00,,---,0.00,VWS V14.01,2013-08-20 23:23:00,
2013-08-20 19:28:00,81.1,66.9,30.02,SW,227,3.0,10.0,62,0.00,,---,0.00,VWS V14.01,2013-08-20 23:28:00,
2013-08-20 19:30:00,82.6,67.8,30.03,West,271,7.0,12.0,61,0.00,,---,0.00,VWS V14.01,2013-08-20 23:30:00,
2013-08-20 19:33:00,80.9,67.1,30.02,NW,321,0.0,7.0,63,0.00,,---,0.00,VWS V14.01,2013-08-20 23:33:00,
2013-08-20 19:38:00,80.7,66.9,30.02,NNW,342,2.0,7.0,63,0.00,,---,0.00,VWS V14.01,2013-08-20 23:38:00,
2013-08-20 19:43:00,80.4,67.1,30.02,SW,227,4.0,7.0,64,0.00,,---,0.00,VWS V14.01,2013-08-20 23:43:00,
2013-08-20 19:48:00,80.0,67.2,30.02,WSW,258,7.0,7.0,65,0.00,,---,0.00,VWS V14.01,2013-08-20 23:48:00,
2013-08-20 19:53:00,79.6,66.8,30.02,East,95,2.0,7.0,65,0.00,,---,0.00,VWS V14.01,2013-08-20 23:53:00,
2013-08-20 19:58:00,79.4,66.6,30.02,WSW,237,2.0,7.0,65,0.00,,---,0.00,VWS V14.01,2013-08-20 23:58:00,
2013-08-20 20:00:00,82.1,67.3,30.03,WSW,252,1.0,10.0,61,0.00,,---,0.00,VWS V14.01,2013-08-21 00:00:00,
2013-08-20 20:03:00,79.1,66.8,30.02,WSW,237,1.0,4.0,66,0.00,,---,0.00,VWS V14.01,2013-08-21 00:03:00,
2013-08-20 20:08:00,78.9,66.6,30.02,SW,236,1.0,4.0,66,0.00,,---,0.00,VWS V14.01,2013-08-21 00:08:00,
2013-08-20 20:13:00,78.5,66.2,30.02,WSW,237,4.0,4.0,66,0.00,,---,0.00,VWS V14.01,2013-08-21 00:13:00,
2013-08-20 20:18:00,78.3,66.9,30.02,SW,236,1.0,5.0,68,0.00,,---,0.00,VWS V14.01,2013-08-21 00:18:00,
2013-08-20 20:23:00,78.2,66.8,30.02,SW,236,1.0,5.0,68,0.00,,---,0.00,VWS V14.01,2013-08-21 00:23:00,
2013-08-20 20:28:00,77.9,66.5,30.02,SW,235,0.0,5.0,68,0.00,,---,0.00,VWS V14.01,2013-08-21 00:28:00,
2013-08-20 20:30:00,80.9,67.1,30.02,West,279,4.0,10.0,63,0.00,,---,0.00,VWS V14.01,2013-08-21 00:30:00,
2013-08-20 20:33:00,77.6,66.2,30.02,ESE,103,0.0,3.0,68,0.00,,---,0.00,VWS V14.01,2013-08-21 00:33:00,
2013-08-20 20:38:00,77.1,66.2,30.03,ESE,104,2.0,4.0,69,0.00,,---,0.00,VWS V14.01,2013-08-21 00:38:00,
2013-08-20 20:43:00,76.7,66.6,30.03,East,101,0.0,4.0,71,0.00,,---,0.00,VWS V14.01,2013-08-21 00:43:00,
2013-08-20 20:48:00,76.4,66.3,30.03,ESE,107,2.0,4.0,71,0.00,,---,0.00,VWS V14.01,2013-08-21 00:48:00,
2013-08-20 20:53:00,76.2,66.1,30.03,ESE,106,1.0,4.0,71,0.00,,---,0.00,VWS V14.01,2013-08-21 00:53:00,
2013-08-20 20:58:00,75.8,65.7,30.03,ESE,109,0.0,4.0,71,0.00,,---,0.00,VWS V14.01,2013-08-21 00:58:00,
2013-08-20 21:00:00,79.2,66.4,30.01,WSW,237,0.0,7.0,65,0.00,,---,0.00,VWS V14.01,2013-08-21 01:00:00,
2013-08-20 21:03:00,75.7,66.0,30.03,ESE,108,0.0,3.0,72,0.00,,---,0.00,VWS V14.01,2013-08-21 01:03:00,
2013-08-20 21:08:00,75.7,66.0,30.03,ESE,110,2.0,4.0,72,0.00,,---,0.00,VWS V14.01,2013-08-21 01:08:00,
2013-08-20 21:13:00,75.7,66.0,30.03,ESE,120,1.0,5.0,72,0.00,,---,0.00,VWS V14.01,2013-08-21 01:13:00,
2013-08-20 21:18:00,75.5,65.8,30.03,SW,233,1.0,5.0,72,0.00,,---,0.00,VWS V14.01,2013-08-21 01:18:00,
2013-08-20 21:19:00,75.5,65.8,30.04,SW,233,0.0,5.0,72,0.00,,---,0.00,VWS V14.01,2013-08-21 01:19:00,
2013-08-20 21:24:00,75.3,65.7,30.03,SW,233,1.0,5.0,72,0.00,,---,0.00,VWS V14.01,2013-08-21 01:24:00,
2013-08-20 21:29:00,75.1,65.5,30.03,SW,233,1.0,5.0,72,0.00,,---,0.00,VWS V14.01,2013-08-21 01:29:00,
2013-08-20 21:30:00,77.8,66.8,30.02,SW,233,1.0,5.0,69,0.00,,---,0.00,VWS V14.01,2013-08-21 01:30:00,
2013-08-20 21:34:00,75.1,65.5,30.03,SW,232,2.0,5.0,72,0.00,,---,0.00,VWS V14.01,2013-08-21 01:34:00,
2013-08-20 21:39:00,75.3,65.7,30.03,SW,232,0.0,5.0,72,0.00,,---,0.00,VWS V14.01,2013-08-21 01:39:00,
2013-08-20 21:44:00,75.3,65.7,30.03,SW,232,2.0,5.0,72,0.00,,---,0.00,VWS V14.01,2013-08-21 01:44:00,
2013-08-20 21:49:00,75.3,65.3,30.04,South,173,0.0,7.0,71,0.00,,---,0.00,VWS V14.01,2013-08-21 01:49:00,
2013-08-20 21:54:00,75.3,65.3,30.04,South,176,1.0,7.0,71,0.00,,---,0.00,VWS V14.01,2013-08-21 01:54:00,
2013-08-20 21:59:00,75.3,65.3,30.04,South,176,0.0,7.0,71,0.00,,---,0.00,VWS V14.01,2013-08-21 01:59:00,
2013-08-20 22:00:00,75.8,66.1,30.03,ESE,107,2.0,4.0,72,0.00,,---,0.00,VWS V14.01,2013-08-21 02:00:00,
2013-08-20 22:04:00,74.9,65.3,30.04,SSW,213,5.0,5.0,72,0.00,,---,0.00,VWS V14.01,2013-08-21 02:04:00,
2013-08-20 22:09:00,75.0,65.4,30.04,SW,223,3.0,5.0,72,0.00,,---,0.00,VWS V14.01,2013-08-21 02:09:00,
2013-08-20 22:14:00,75.0,65.4,30.04,SW,220,3.0,5.0,72,0.00,,---,0.00,VWS V14.01,2013-08-21 02:14:00,
2013-08-20 22:19:00,74.8,65.2,30.04,SW,218,1.0,6.0,72,0.00,,---,0.00,VWS V14.01,2013-08-21 02:19:00,
2013-08-20 22:24:00,74.8,65.2,30.04,SW,221,1.0,6.0,72,0.00,,---,0.00,VWS V14.01,2013-08-21 02:24:00,
2013-08-20 22:29:00,74.6,65.0,30.04,SSW,194,4.0,6.0,72,0.00,,---,0.00,VWS V14.01,2013-08-21 02:29:00,
2013-08-20 22:30:00,75.1,65.5,30.03,SW,233,0.0,5.0,72,0.00,,---,0.00,VWS V14.01,2013-08-21 02:30:00,
2013-08-20 22:34:00,74.8,65.2,30.04,SSW,199,1.0,5.0,72,0.00,,---,0.00,VWS V14.01,2013-08-21 02:34:00,
2013-08-20 22:39:00,74.6,65.0,30.04,South,189,0.0,5.0,72,0.00,,---,0.00,VWS V14.01,2013-08-21 02:39:00,
2013-08-20 22:44:00,74.6,65.0,30.04,South,182,4.0,7.0,72,0.00,,---,0.00,VWS V14.01,2013-08-21 02:44:00,
2013-08-20 22:49:00,74.6,64.6,30.04,SSW,210,3.0,11.0,71,0.00,,---,0.00,VWS V14.01,2013-08-21 02:49:00,
2013-08-20 22:54:00,74.8,65.2,30.04,South,183,3.0,11.0,72,0.00,,---,0.00,VWS V14.01,2013-08-21 02:54:00,
2013-08-20 23:00:00,74.7,64.7,30.04,SSW,210,3.0,11.0,71,0.00,,---,0.00,VWS V14.01,2013-08-21 03:00:00,
2013-08-20 23:05:00,74.6,65.0,30.04,SSW,202,1.0,8.0,72,0.00,,---,0.00,VWS V14.01,2013-08-21 03:05:00,
2013-08-20 23:10:00,74.4,64.8,30.03,SSW,196,3.0,8.0,72,0.00,,---,0.00,VWS V14.01,2013-08-21 03:10:00,
2013-08-20 23:15:00,74.4,64.8,30.03,SW,231,1.0,8.0,72,0.00,,---,0.00,VWS V14.01,2013-08-21 03:15:00,
2013-08-20 23:20:00,74.4,64.8,30.04,SW,215,5.0,10.0,72,0.00,,---,0.00,VWS V14.01,2013-08-21 03:20:00,
2013-08-20 23:25:00,74.4,65.2,30.04,South,190,3.0,11.0,73,0.00,,---,0.00,VWS V14.01,2013-08-21 03:25:00,
2013-08-20 23:30:00,74.4,65.2,30.03,SSW,203,2.0,2.0,73,0.00,,---,0.00,VWS V14.01,2013-08-21 03:30:00,
2013-08-20 23:35:00,74.1,65.3,30.03,SSE,159,8.0,8.0,74,0.00,,---,0.00,VWS V14.01,2013-08-21 03:35:00,
2013-08-20 23:40:00,74.1,65.3,30.04,SSE,168,2.0,9.0,74,0.00,,---,0.00,VWS V14.01,2013-08-21 03:40:00,
2013-08-20 23:45:00,73.9,65.1,30.03,South,171,6.0,9.0,74,0.00,,---,0.00,VWS V14.01,2013-08-21 03:45:00,
2013-08-20 23:50:00,73.9,65.1,30.03,SSE,155,3.0,9.0,74,0.00,,---,0.00,VWS V14.01,2013-08-21 03:50:00,
2013-08-20 23:55:00,73.7,64.9,30.04,SSW,198,0.0,9.0,74,0.00,,---,0.00,VWS V14.01,2013-08-21 03:55:00,